Regional Weather Roundup
Issued by NWS San Angelo, TX

Home | Current Version | Previous Version | Text Only | Print | Product List | Glossary On
Versions: 1 2 3 4 5 6 7 8 9 10 11 12 13 14 15 16 17 18 19 20 21 22 23 24 25 26 27 28 29 30 31 32 33 34 35 36 37 38 39 40 41 42 43 44 45 46 47 48 49 50
000
ASUS44 KSJT 232210
RWRSJT
WEST CENTRAL TEXAS REGIONAL WEATHER ROUNDUP
NATIONAL WEATHER SERVICE SAN ANGELO TX
500 PM CDT SAT SEP 23 2017

NOTE: "FAIR" INDICATES FEW OR NO CLOUDS BELOW 12,000 FEET WITH NO
SIGNIFICANT WEATHER AND/OR OBSTRUCTIONS TO VISIBILITY.

TXZ049-054-064>066-071>073-076>078-098-099-113-114-127-128-139-140-
154-155-168>170-232300
...LOCATIONS ACROSS WEST CENTRAL TEXAS...

CITY           SKY/WX    TMP DP  RH WIND       PRES   REMARKS
SAN ANGELO     MOSUNNY   90  58  33 SE16G25   29.81F
ABILENE        MOSUNNY   89  60  37 SE18G28   29.84F
DYESS AFB      SUNNY     90  61  37 SE14      29.82F
JUNCTION       NOT AVBL
SWEETWATER     MOSUNNY   88  58  36 SE20G25   29.86F
BROWNWOOD      PTSUNNY   93  59  31 E16G24    29.84F
COLEMAN        PTCLDY    90  58  33 SE14G22   29.85F
SONORA         MOSUNNY   88  59  37 S13G22    29.87F
OZONA          MOCLDY    88  57  35 S22G29    29.85F
BRADY          NOT AVBL
$$

TEXAS PANHANDLE/OKLAHOMA PANHANDLE

CITY           SKY/WX    TMP DP  RH WIND       PRES   REMARKS
AMARILLO       NOT AVBL
BORGER         SUNNY     85  61  44 S18G29    29.84F
CANADIAN       CLOUDY    85  64  49 SE18G25   29.84F
DALHART        CLOUDY    67  61  81 W7        29.90R
DUMAS          PTCLDY    80  60  51 SE26G32   29.86F
GUYMON         NOT AVBL
HEREFORD       CLOUDY    78  62  58 S18G26    29.90R
PAMPA          PTCLDY    82  61  48 SE22      29.88F
PERRYTON       MOSUNNY   84  63  49 SE25G32   29.85F
$$

SOUTHERN PANHANDLE/SOUTH PLAINS/ROLLING PLAINS

CITY           SKY/WX    TMP DP  RH WIND       PRES   REMARKS
LUBBOCK        PTSUNNY   83  60  45 S17G25    29.85S
SNYDER         MOSUNNY   88  62  40 SE18G28   29.83F
CHILDRESS      MOSUNNY   89  61  38 SE17G33   29.82F
SEMINOLE       MOCLDY    82  60  48 S20G28    29.85R
$$

PERMIAN BASIN

CITY           SKY/WX    TMP DP  RH WIND       PRES   REMARKS
MIDLAND        PTSUNNY   86  61  42 SE29G35   29.82S
ODESSA         CLOUDY    83  62  49 SE23G33   29.83S
WINK           TSTM      72  68  87 NW20G43   29.78R
$$

FAR WEST/SOUTHWEST MOUNTAINS/TRANS PECOS

CITY           SKY/WX    TMP DP  RH WIND       PRES   REMARKS
ALPINE         PTCLDY    85  59  41 SE14G23   29.90F
DRYDEN           N/A     90  64  42 SE28G39   29.75F
EL PASO        MOSUNNY   88  57  34 SE9       29.74F
FORT STOCKTON  NOT AVBL
GUADALUPE PASS PTSUNNY   74  64  71 E10       29.90F
MARFA          NOT AVBL
PECOS          CLOUDY    79  68  68 N16       29.72S
$$

DALLAS/FORT WORTH METROPLEX

CITY           SKY/WX    TMP DP  RH WIND       PRES   REMARKS
DFW AIRPORT    MOSUNNY   94  63  35 SE10G18   29.85F
FTW MEACHAM    MOSUNNY   92  64  39 SE15      29.85F
DAL-EXECUTIVE  PTSUNNY   94  63  35 SE12G20   29.86F
GRAND PRAIRIE  SUNNY     90  61  37 E8        29.88F
ADDISON        MOSUNNY   93  61  33 SE10G17   29.88F
MESQUITE       MOCLDY    93  61  33 E10G16    29.87F
LANCASTER      MOCLDY    94  63  36 E13G18    29.87F
$$

NORTH CENTRAL TEXAS

CITY           SKY/WX    TMP DP  RH WIND       PRES   REMARKS
SHRMAN/DENISON CLEAR     92  64  38 SE10      29.90S
GAINESVILLE    MOSUNNY   89  63  41 SE15      29.90F
BRIDGEPORT     CLEAR     91  60  35 S15       29.89F
DENTON         SUNNY     92  64  39 SE12      29.86F
WAXAHACHIE     PTCLDY    93  63  37 SE8       29.88F
GRANBURY       CLEAR     93  59  31 SE14G20   29.87F
$$

WESTERN NORTH TEXAS

CITY           SKY/WX    TMP DP  RH WIND       PRES   REMARKS
WICHITA FALLS  MOSUNNY   91  62  37 SE23G29   29.85F
VERNON         PTCLDY    93  49  22 SE14G26   29.83F
BRECKENRIDGE   CLEAR     93  57  30 S16G23    29.84F
COMANCHE       MOSUNNY   92  60  34 SE13G21   29.86F
$$

CENTRAL AND SOUTH CENTRAL TEXAS

CITY           SKY/WX    TMP DP  RH WIND       PRES   REMARKS
AUSTIN/BERGSTM NOT AVBL
WACO           MOSUNNY   93  61  34 S16       29.86F
HILLSBORO      CLEAR     91  64  40 SE12      29.88S
TEMPLE         SUNNY     90  66  45 SE13      29.87F
KILLEEN-GRAY   MOSUNNY   89  62  40 SE9       29.86F
FORT HOOD      MOSUNNY  N/A N/A N/A SE12      29.84F
GEORGETOWN     PTSUNNY   89  66  46 SE9       29.88F
LAGO VISTA     FAIR      89  66  45 SE7       29.89S
SAN MARCOS     NOT AVBL
NEW BRAUNFELS  NOT AVBL
RANDOLPH AFB   PTSUNNY   89  69  52 E13G21    29.83F
SAN ANTONIO    PTSUNNY   88  68  51 SE15G22   29.84F
STINSON        MOSUNNY   93  69  45 SE12      29.80F
PLEASANTON     NOT AVBL
LA GRANGE      SUNNY     91  71  50 SE7       29.83F
GIDDINGS       CLEAR     90  64  41 S5        29.87F
$$

EAST TEXAS

CITY           SKY/WX    TMP DP  RH WIND       PRES   REMARKS
PARIS          MOSUNNY   90  68  48 E9        29.90F
CLARKSVILLE    NOT AVBL
TYLER          PTSUNNY   92  64  39 MISG      29.88F
LONGVIEW       MOSUNNY   92  67  43 SE5       29.87F
PALESTINE      PTCLDY    91  67  44 S9        29.89F
NACOGDOCHES    NOT AVBL
$$

TEXAS HILL COUNTRY AND EDWARDS PLATEAU

CITY           SKY/WX    TMP DP  RH WIND       PRES   REMARKS
LLANO          PTCLDY    93  64  38 E8        29.87F
HORSESHOE BAY  FAIR      91  64  40 SE9       29.86F
KERRVILLE      MOSUNNY   89  65  44 SE12      29.86F
FREDERICKSBRG  MOSUNNY   88  58  35 SE8       29.87F
ROCKSPRINGS    NOT AVBL
HONDO          NOT AVBL
UVALDE         PTCLDY    92  64  39 SE15      29.80F
DEL RIO        PTSUNNY   93  64  38 SE17G25     N/A
$$

SOUTHEAST TEXAS

CITY           SKY/WX    TMP DP  RH WIND       PRES   REMARKS
COLLEGE STN    NOT AVBL
CALDWELL       PTCLDY    89  69  50 SE9       29.87F
CROCKETT       CLOUDY    88  70  55 SE6       29.91S
BRENHAM        SUNNY     91  68  46 SE7       29.87S
HUNTSVILLE     NOT AVBL
CONROE         PTSUNNY   90  70  51 E7        29.87F
HOUSTON BUSH   MOSUNNY   90  70  51 E13       29.86F
HOUSTON HOBBY  MOSUNNY   90  70  51 SE12      29.86F
PERLAND        NOT AVBL
WHARTON        CLEAR     88  67  48 SE9       29.86S
$$

THE UPPER TEXAS COAST

CITY           SKY/WX    TMP DP  RH WIND       PRES   REMARKS
ORANGE         PTCLDY    86  74  68 S5        29.90S
PORT ARTHUR    SUNNY     86  72  62 SE8       29.87F
GALVESTON      SUNNY     88  75  66 E13         N/A
ANGLETON       NOT AVBL
BAY CITY       MOCLDY    89  73  59 SE12G17   29.86S
$$

TEXAS COASTAL BEND, RIO GRANDE PLAINS DEEP SOUTH TEXAS

CITY           SKY/WX    TMP DP  RH WIND       PRES   REMARKS
VICTORIA       MOSUNNY   88  70  55 SE14      29.84F
BEEVILLE       FAIR      90  61  38 SE12G21   29.82S
ROCKPORT       NOT AVBL
PORT ARANSAS   NOT AVBL
PORT LAVACA    NOT AVBL
CORPUS CHRISTI MOSUNNY   86  74  67 E17       29.82S
KINGSVILLE NAS LGT RAIN  92  73  53 E18G26    29.79F
COTULLA        NOT AVBL
LAREDO         NOT AVBL
BROWNSVILLE    NOT AVBL
PORT ISABEL    NOT AVBL
HEBBRONVILLE   MOCLDY    93  62  35 SE17G23   29.78F
MCALLEN        MOSUNNY   84  73  70 S17       29.78R
WESLACO        CLOUDY    89  72  58 SE13G20   29.76F
FALFURRIAS     PTCLDY   -38  32 100 E17       29.78S WCI -69
EDINBURG       LGT RAIN  88  71  57 SE9       29.77S
$$



USA.gov is the U.S. government's official web portal to all federal, state and local government web resources and services.